FLOCK 4V-5 (46290 NORAD) Tracking and Keplerian Element Data

This shows tracking and keplerian element data for the satellite.

Feedback or suggestion? Click here.




ElementValue
Catalog46290
NameFLOCK 4V-5
Epoch Orbit1260
Epoch Day330.77164844
Epoch Year2020
RAAN42.3066
Inclination97.5115
Eccentricity0.0004079
Argument of Perigee78.4673
Mean Anonmoly281.7015
Mean Motion15.10086558
Decay Rate8.91E-06
L11 46290U 20061U 20330.77164844 .00000891 00000-0 58554-4 0 9998
L22 46290 97.5115 42.3066 0004079 78.4673 281.7015 15.10086558 12609

Live tracking and technical data element details for FLOCK 4V-5 (NORAD 46290). FLOCK 4V-5 can be tracked NOW for your location showing map with azimuth and elevation plus other details from your city location.

Track the satellite on the map from your city or location and see movement details for azimuth, elevation, latitude, longitude, range, height, and movement on the map or in text.







IsCatalogInMostPopularTable: catalog: 46290, numindb: 13
Update: records affected: 1



GetName: 46290 FLOCK 4V-5

Hit Count: updated at: Fri, 27 Nov 2020 00:41:07 GMT